Omak, WA

12:14 AM PDT on April 23, 2017 (GMT -0700)
Omak

Weather History for KOMK - October, 2013

Change the Weather History Date:

Monday, October 14, 2013

  Actual Average Record
Temperature  
Mean Temperature 50 °F 50 °F  
Max Temperature 63 °F 63 °F 76 °F (1945)
Min Temperature 36 °F 37 °F 20 °F (1969)
Degree Days  
Heating Degree Days 15 15  
Month to date heating degree days 227 170  
Since 1 July heating degree days 360 331  
Cooling Degree Days 0 0  
Month to date cooling degree days 0 0  
Year to date cooling degree days 814 664  
Growing Degree Days 1 (Base 50)    
Moisture  
Dew Point 30 °F    
Average Humidity 49    
Maximum Humidity 70    
Minimum Humidity 27    
Precipitation  
Precipitation 0.00 in 0.03 in 0.88 in (1935)
Month to date precipitation 0.05 0.39  
Year to date precipitation 8.88 10.25  
Sea Level Pressure  
Sea Level Pressure 30.41 in    
Wind  
Wind Speed 10 mph (NNW)    
Max Wind Speed 21 mph    
Max Gust Speed 25 mph    
Visibility 10 miles    
Events      
T = Trace of Precipitation, MM = Missing Value Source: NWS Daily Summary

Daily Weather History Graph

Daily Weather History Graph

Search for Another Location

Airport or City:

Trip Planner

Search our weather history database for the weather conditions in past years. The results will help you decide how hot, cold, wet, or windy it might be!

Date:

Astronomy

Oct. 14, 2013 Rise Set
Actual Time 7:16 AM PDT 6:10 PM PDT
Civil Twilight 6:45 AM PDT 6:41 PM PDT
Nautical Twilight 6:09 AM PDT 7:17 PM PDT
Astronomical Twilight 5:32 AM PDT 7:54 PM PDT
Moon 4:00 PM PDT (10/14) 2:18 AM PDT (10/14)
Length of Visible Light 11h 56m
Length of Day
10h 53m
Waxing Gibbous, 80% of the Moon is Illuminated
Oct 14
Waxing Gibbous
Oct 18
Full
Oct 26
Last Quarter
Nov 3
New
Nov 9
First Quarter

Hourly Weather History & Observations

Time (PDT) Temp. Windchill Dew Point Humidity Pressure Visibility Wind Dir Wind Speed Gust Speed Precip Events Conditions
12:53 AM 39.0 °F 34.8 °F 28.0 °F 65% 30.37 in 10.0 mi West 5.8 mph - N/A   Clear
1:53 AM 39.0 °F 33.4 °F 28.0 °F 65% 30.37 in 10.0 mi WNW 8.1 mph - N/A   Clear
2:53 AM 39.9 °F 33.4 °F 28.0 °F 63% 30.37 in 10.0 mi NW 10.4 mph - N/A   Clear
3:53 AM 39.9 °F 32.9 °F 28.0 °F 63% 30.37 in 10.0 mi NW 11.5 mph - N/A   Clear
4:53 AM 39.9 °F 33.4 °F 28.9 °F 65% 30.38 in 10.0 mi NNW 10.4 mph - N/A   Clear
5:53 AM 39.0 °F 34.0 °F 28.9 °F 67% 30.41 in 10.0 mi North 6.9 mph - N/A   Clear
6:53 AM 39.0 °F 32.8 °F 28.9 °F 67% 30.43 in 10.0 mi NNW 9.2 mph - N/A   Clear
7:53 AM 39.0 °F 34.0 °F 30.0 °F 70% 30.44 in 10.0 mi NNW 6.9 mph - N/A   Clear
8:53 AM 43.0 °F 37.2 °F 30.9 °F 62% 30.46 in 10.0 mi North 10.4 mph - N/A   Clear
9:53 AM 48.9 °F - 32.0 °F 52% 30.46 in 10.0 mi North 8.1 mph - N/A   Clear
10:53 AM 52.0 °F - 33.1 °F 49% 30.45 in 10.0 mi North 15.0 mph 20.7 mph N/A   Clear
11:53 AM 55.0 °F - 33.1 °F 43% 30.44 in 10.0 mi NNE 16.1 mph 21.9 mph N/A   Clear
12:53 PM 60.1 °F - 34.0 °F 38% 30.43 in 10.0 mi North 13.8 mph - N/A   Clear
1:53 PM 61.0 °F - 30.9 °F 32% 30.40 in 10.0 mi NNE 17.3 mph 25.3 mph N/A   Clear
2:53 PM 62.1 °F - 28.9 °F 29% 30.39 in 10.0 mi North 17.3 mph 24.2 mph N/A   Clear
3:53 PM 63.0 °F - 28.0 °F 27% 30.38 in 10.0 mi North 15.0 mph - N/A   Clear
4:53 PM 62.1 °F - 28.9 °F 29% 30.37 in 10.0 mi North 11.5 mph - N/A   Clear
5:53 PM 55.9 °F - 30.0 °F 37% 30.38 in 10.0 mi NNW 8.1 mph - N/A   Clear
6:53 PM 51.1 °F - 30.9 °F 46% 30.39 in 10.0 mi West 8.1 mph - N/A   Clear
7:53 PM 48.9 °F - 32.0 °F 52% 30.40 in 10.0 mi WNW 9.2 mph - N/A   Clear
8:53 PM 46.0 °F 43.1 °F 32.0 °F 58% 30.41 in 10.0 mi NW 5.8 mph - N/A   Clear
9:53 PM 44.1 °F 40.8 °F 30.9 °F 60% 30.43 in 10.0 mi NW 5.8 mph - N/A   Clear
10:53 PM 43.0 °F 39.5 °F 32.0 °F 65% 30.44 in 10.0 mi NW 5.8 mph - N/A   Clear
11:53 PM 42.1 °F 39.2 °F 32.0 °F 67% 30.45 in 10.0 mi North 4.6 mph - N/A   Clear